www.pogodaiklimat.ru

Погода и климат >> Архив погоды >> Италия >> Сиракузы


ПОГОДА в Сиракузах

  • Прогноз погоды в Сиракузах
  • Монитор погоды в Сиракузах

АРХИВ ПОГОДЫ в Сиракузах

Время (UTC), дата Ветер
(напр.,м/с)
 
Видим.   Явления Облачность Т
(С)
Тd
(С)
f
(%)
Тe
(С)
Тes
(С)
Комфортность P
(гПа)
Po
(гПа)
Тmin
(С)
Tmax
(С)
R
(мм)
R24
(мм)
S
(см)
01 12.09 Ю 1 н/о н/о +21.6 +18.3 82 +26 +26 душно 1021.2 1020.8
02 12.09 Ю 1 н/о н/о +21.3 +18.6 85 +26 +26 душно 1021.4 1021.0
03 12.09 З 1 н/о н/о +21.6 +19.3 87 +27 +27 душно 1021.7 1021.3
04 12.09 СЗ 1 н/о н/о +22.8 +20.3 86 +30 +30 очень
душно
1021.7 1021.3
05 12.09 СЗ 2 н/о н/о +23.2 +19.9 82 +30 +30 очень
душно
1022.4 1022.0
06 12.09 ЮЗ 1 н/о н/о +22.2 +18.5 80 +27 +27 душно 1023.3 1022.9 +21.0 202
07 12.09 З 4 н/о н/о +25.2 +20.8 77 +32 +32 очень
душно
1023.4 1023.0
08 12.09 СЗ 4 н/о н/о +26.2 +20.5 71 +33 +33 очень
душно
1023.9 1023.5
09 12.09 З 3 н/о н/о +26.9 +20.7 69 +34 +34 очень
душно
1024.3 1024.0
10 12.09 З 3 н/о н/о +27.0 +20.0 66 +33 +33 очень
душно
1024.3 1024.0
11 12.09 З 4 н/о н/о +27.1 +20.1 66 +33 +33 очень
душно
1024.2 1023.9
12 12.09 З 3 н/о н/о +27.4 +20.7 67 +34 +34 очень
душно
1024.0 1023.7
13 12.09 З 3 н/о н/о +27.5 +20.8 67 +34 +34 очень
душно
1023.8 1023.5
14 12.09 ЮЗ 2 н/о н/о +28.2 +21.2 66 +36 +36 очень
душно
1023.6 1023.3
15 12.09 З 2 н/о н/о +27.7 +20.5 65 +34 +34 очень
душно
1023.3 1023.0
16 12.09 СЗ 1 н/о н/о +27.6 +19.6 62 +33 +33 очень
душно
1023.4 1023.1
17 12.09 ЮЗ 2 н/о н/о +27.2 +20.2 66 +34 +34 очень
душно
1023.6 1023.3
18 12.09 Ю 1 н/о н/о +26.7 +20.0 67 +33 +33 очень
душно
1024.2 1023.9 +28.6
19 12.09 Ю 1 н/о н/о +26.1 +19.9 69 +32 +32 очень
душно
1024.6 1024.2
20 12.09 З 1 н/о н/о +26.7 +20.7 70 +33 +33 очень
душно
1024.7 1024.4
21 12.09 З 1 н/о н/о +26.3 +20.6 71 +33 +33 очень
душно
1024.8 1024.4
22 12.09 ЮЗ 1 н/о н/о +23.7 +18.9 74 +28 +28 душно 1024.5 1024.1
23 12.09 Ю 2 н/о н/о +22.8 +18.3 76 +28 +28 душно 1024.3 1023.9
00 13.09 СЗ 1 н/о н/о +23.6 +19.5 78 +29 +29 душно 1024.3 1023.9
01 13.09 ЮЗ 1 н/о н/о +22.2 +17.7 76 +27 +27 душно 1023.8 1023.4
02 13.09 ЮЗ 1 н/о н/о +21.5 +17.4 77 +26 +26 душно 1023.7 1023.3
03 13.09 ЮЗ 2 н/о н/о +20.7 +17.1 80 +25 +25 комфорт 1023.7 1023.3
04 13.09 Ю 1 н/о н/о +20.5 +17.1 81 +25 +25 комфорт 1023.8 1023.4
05 13.09 Ю 1 н/о н/о +20.0 +16.6 81 +24 +24 комфорт 1024.2 1023.8
06 13.09 ЮЗ 1 н/о н/о +20.6 +17.3 81 +25 +25 комфорт 1024.4 1024.0 +19.9 202
07 13.09 ЮЗ 1 н/о н/о +23.8 +20.1 80 +29 +29 душно 1024.5 1024.1
08 13.09 З 4 н/о н/о +26.6 +17.9 59 +31 +31 душно 1024.7 1024.4
09 13.09 З 4 н/о н/о +27.4 +18.1 57 +32 +32 очень
душно
1024.7 1024.4
10 13.09 З 4 н/о н/о +27.6 +18.3 57 +32 +32 очень
душно
1024.5 1024.2
11 13.09 З 5 н/о н/о +28.4 +19.6 59 +34 +34 очень
душно
1024.1 1023.8
12 13.09 З 4 н/о н/о +28.5 +21.2 65 +36 +36 очень
душно
1024.0 1023.7
13 13.09 ЮЗ 2 н/о н/о +29.1 +19.4 56 +35 +35 очень
душно
1023.6 1023.3
14 13.09 З 2 н/о н/о +28.9 +16.7 48 +33 +33 очень
душно
1023.5 1023.2
15 13.09 СЗ 2 н/о н/о +28.2 +17.7 53 +33 +33 очень
душно
1023.4 1023.1
16 13.09 Ю 3 н/о н/о +28.0 +17.8 54 +32 +32 душно 1023.6 1023.3
17 13.09 ЮЗ 2 н/о н/о +27.5 +18.4 58 +32 +32 очень
душно
1023.7 1023.4
18 13.09 ЮЗ 2 н/о н/о +27.0 +19.0 62 +32 +32 очень
душно
1023.9 1023.6 +29.5
19 13.09 ЮЗ 2 н/о н/о +26.4 +19.0 64 +32 +32 очень
душно
1024.5 1024.1
20 13.09 ЮЗ 1 н/о н/о +25.5 +18.6 66 +30 +30 душно 1024.9 1024.5
21 13.09 ЮЗ 2 н/о н/о +24.3 +17.7 67 +28 +28 душно 1025.1 1024.7
22 13.09 Ю 2 н/о н/о +22.7 +16.9 70 +27 +27 душно 1024.9 1024.5
23 13.09 Ю 1 н/о н/о +22.2 +17.1 73 +27 +27 душно 1024.8 1024.4
00 14.09 Ю 1 н/о н/о +21.7 +16.8 74 +26 +26 душно 1024.4 1024.0
01 14.09 Ю 1 н/о н/о +21.3 +16.4 74 +25 +25 комфорт 1023.9 1023.5
02 14.09 ЮЗ 1 н/о н/о +20.6 +16.1 75 +25 +25 комфорт 1023.5 1023.1
03 14.09 Ю 1 н/о н/о +20.4 +16.0 76 +24 +24 комфорт 1023.4 1023.0
04 14.09 Ю 1 н/о н/о +20.1 +15.9 77 +24 +24 комфорт 1023.3 1022.9
05 14.09 Ю 1 н/о н/о +19.8 +15.8 78 +23 +23 комфорт 1023.6 1023.2
06 14.09 Ю 1 н/о н/о +20.6 +16.6 78 +25 +25 комфорт 1023.9 1023.5 +19.7 2
07 14.09 СЗ 3 н/о н/о +25.3 +19.1 69 +30 +30 душно 1024.2 1023.8
08 14.09 З 3 н/о н/о +26.5 +18.3 61 +31 +31 душно 1024.0 1023.7
09 14.09 СЗ 3 н/о н/о +27.6 +16.8 52 +31 +31 душно 1024.2 1023.9
10 14.09 СЗ 2 н/о н/о +28.2 +16.1 48 +31 +31 душно 1024.3 1024.0
11 14.09 З 3 н/о н/о +28.8 +12.3 36 +30 +30 жарко 1024.0 1023.7
12 14.09 З 3 н/о н/о +28.7 +12.6 37 +30 +30 жарко 1023.9 1023.6
13 14.09 З 2 н/о н/о +28.9 +12.3 36 +30 +30 жарко 1023.3 1023.0
14 14.09 З 3 н/о н/о +28.6 +15.8 46 +32 +32 душно 1022.9 1022.6
15 14.09 З 2 н/о н/о +28.2 +15.1 45 +31 +31 душно 1022.5 1022.2
16 14.09 З 2 н/о н/о +28.3 +14.8 44 +31 +31 душно 1022.5 1022.2
17 14.09 ЮЗ 2 н/о н/о +27.6 +16.8 52 +31 +31 душно 1022.5 1022.2
18 14.09 ЮЗ 2 н/о н/о +26.7 +17.1 56 +31 +31 душно 1022.7 1022.4 +29.5
19 14.09 ЮЗ 1 н/о н/о +25.4 +15.9 56 +29 +29 душно 1023.2 1022.8
20 14.09 ЮЗ 1 н/о н/о +23.3 +15.5 62 +28 +28 душно 1023.5 1023.1
21 14.09 ЮЗ 1 н/о н/о +21.5 +14.1 63 +24 +24 комфорт 1023.7 1023.3
22 14.09 ЮЗ 1 н/о н/о +20.4 +13.3 64 +24 +24 комфорт 1023.6 1023.2
23 14.09 ЮЗ 1 н/о н/о +19.7 +12.7 64 +22 +22 комфорт 1023.4 1023.0
00 15.09 ЮЗ 1 н/о н/о +19.3 +12.3 64 +22 +22 комфорт 1023.1 1022.7
01 15.09 ЮЗ 1 н/о н/о +18.6 +11.6 64 +20 +20 1022.7 1022.3
02 15.09 ЮЗ 1 н/о н/о +18.6 +11.6 64 +21 +21 комфорт 1022.7 1022.3
03 15.09 ЮЗ 1 н/о н/о +18.2 +11.0 63 +20 +20 1022.6 1022.2
04 15.09 ЮЗ 1 н/о н/о +17.7 +11.0 65 +19 +19 1022.7 1022.3
05 15.09 ЮЗ 1 н/о н/о +17.5 +11.0 66 +19 +19 1022.9 1022.5
06 15.09 ЮЗ 1 н/о н/о +19.1 +12.8 67 +21 +21 комфорт 1023.5 1023.1 +17.5 302
07 15.09 ЮЗ 1 н/о н/о +23.0 +16.7 68 +28 +28 душно 1024.0 1023.6
08 15.09 З 1 н/о н/о +26.7 +19.3 64 +32 +32 очень
душно
1023.8 1023.5
09 15.09 З 2 н/о н/о +27.3 +18.8 60 +32 +32 очень
душно
1023.9 1023.6
10 15.09 З 3 н/о н/о +26.9 +18.4 60 +32 +32 очень
душно
1023.6 1023.3
11 15.09 З 3 н/о н/о +26.9 +19.2 63 +32 +32 очень
душно
1023.2 1022.9
12 15.09 З 2 н/о н/о +27.6 +19.1 60 +33 +33 очень
душно
1022.9 1022.6
13 15.09 ЮЗ 2 н/о н/о +27.9 +16.1 49 +31 +31 душно 1022.5 1022.2
14 15.09 ЮЗ 4 н/о н/о +28.1 +18.4 56 +33 +33 очень
душно
1022.0 1021.7
15 15.09 ЮЗ 4 н/о н/о +27.8 +18.7 58 +33 +33 очень
душно
1021.5 1021.2
16 15.09 ЮЗ 4 н/о н/о +27.5 +19.5 62 +33 +33 очень
душно
1021.4 1021.1
17 15.09 Ю 4 н/о н/о +26.5 +20.3 69 +33 +33 очень
душно
1021.0 1020.7
18 15.09 Ю 3 н/о н/о +26.2 +19.5 67 +32 +32 очень
душно
1021.0 1020.7 +28.6
19 15.09 ЮЗ 1 н/о н/о +25.0 +18.6 68 +30 +30 душно 1021.4 1021.0
20 15.09 ЮЗ 2 н/о н/о +23.9 +17.6 68 +28 +28 душно 1021.8 1021.4
21 15.09 Ю 1 н/о н/о +23.2 +16.9 68 +28 +28 душно 1021.8 1021.4
22 15.09 ЮЗ 1 н/о н/о +22.1 +16.3 70 +26 +26 душно 1021.5 1021.1
23 15.09 ЮЗ 1 н/о н/о +20.9 +16.0 74 +26 +26 душно 1021.3 1020.9
00 16.09 ЮЗ 1 н/о н/о +20.4 +16.4 78 +25 +25 комфорт 1021.1 1020.7
01 16.09 ЮЗ 1 н/о н/о +19.7 +15.7 78 +23 +23 комфорт 1020.5 1020.1
02 16.09 ЮЗ 1 н/о н/о +19.4 +15.2 77 +22 +22 комфорт 1020.1 1019.7
03 16.09 Ю 1 н/о н/о +19.2 +15.2 78 +22 +22 комфорт 1019.8 1019.4
04 16.09 Ю 2 н/о н/о +18.5 +14.5 78 +20 +20 1019.5 1019.1
05 16.09 Ю 1 н/о н/о +18.6 +14.4 77 +21 +21 комфорт 1019.8 1019.4
06 16.09 Ю 1 н/о н/о +19.4 +15.4 78 +22 +22 комфорт 1020.2 1019.8 +18.4 1
07 16.09 Ю 1 н/о н/о +22.4 +17.9 76 +27 +27 душно 1020.4 1020.0
08 16.09 Ю 1 н/о н/о +26.2 +20.2 70 +32 +32 очень
душно
1020.5 1020.2
09 16.09 З 2 н/о н/о +27.2 +18.7 60 +32 +32 очень
душно
1020.5 1020.2
10 16.09 З 2 н/о н/о +27.9 +18.0 55 +32 +32 душно 1020.4 1020.1
11 16.09 ЮЗ 4 н/о н/о +27.4 +18.6 59 +32 +32 очень
душно
1020.1 1019.8
12 16.09 ЮЗ 4 н/о н/о +28.0 +18.9 58 +33 +33 очень
душно
1019.6 1019.3
13 16.09 ЮЗ 4 н/о н/о +28.3 +18.6 56 +33 +33 очень
душно
1018.9 1018.6
14 16.09 ЮЗ 4 н/о н/о +27.4 +20.2 65 +34 +34 очень
душно
1018.7 1018.4
15 16.09 ЮЗ 5 н/о н/о +27.0 +19.8 65 +33 +33 очень
душно
1018.3 1018.0
16 16.09 ЮЗ 5 н/о н/о +26.7 +20.0 67 +33 +33 очень
душно
1018.0 1017.7
17 16.09 Ю 5 н/о н/о +26.4 +20.4 70 +33 +33 очень
душно
1017.8 1017.5
18 16.09 Ю 3 н/о н/о +25.9 +20.2 71 +32 +32 очень
душно
1017.9 1017.6 +28.7
19 16.09 Ю 3 н/о н/о +25.3 +18.4 66 +30 +30 душно 1018.0 1017.7
20 16.09 ЮЗ 2 н/о н/о +24.0 +16.9 65 +28 +28 душно 1018.5 1018.1
21 16.09 Ю 2 н/о н/о +22.8 +16.5 68 +27 +27 душно 1018.6 1018.2
22 16.09 штиль 0 н/о н/о +22.0 +16.2 70 +26 +26 душно 1018.3 1017.9
23 16.09 Ю 1 н/о н/о +21.3 +15.7 70 +25 +25 комфорт 1018.1 1017.7
00 17.09 Ю 1 н/о н/о +20.4 +15.1 72 +25 +25 комфорт 1018.1 1017.7
01 17.09 Ю 1 н/о н/о +20.0 +14.5 71 +23 +23 комфорт 1017.8 1017.4
02 17.09 Ю 1 н/о н/о +19.6 +14.3 71 +22 +22 комфорт 1017.5 1017.1
03 17.09 Ю 1 н/о н/о +19.5 +14.4 72 +22 +22 комфорт 1017.4 1017.0
04 17.09 Ю 2 н/о н/о +19.0 +13.8 72 +21 +21 комфорт 1017.3 1016.9
05 17.09 Ю 1 н/о н/о +18.7 +13.7 73 +21 +21 комфорт 1017.4 1017.0
06 17.09 Ю 1 н/о н/о +19.5 +14.7 74 +23 +23 комфорт 1017.6 1017.2 +18.7 1
07 17.09 Ю 1 н/о н/о +22.7 +17.8 74 +28 +28 душно 1017.7 1017.3
08 17.09 Ю 1 н/о н/о +25.9 +19.2 67 +31 +31 очень
душно
1017.9 1017.6
09 17.09 ЮЗ 2 н/о н/о +27.1 +19.6 64 +33 +33 очень
душно
1018.1 1017.8
10 17.09 ЮЗ 3 н/о н/о +27.6 +19.9 63 +34 +34 очень
душно
1017.9 1017.6
11 17.09 ЮЗ 4 н/о н/о +27.8 +20.6 65 +35 +35 очень
душно
1017.4 1017.1
12 17.09 ЮЗ 5 н/о н/о +28.0 +21.0 66 +35 +35 очень
душно
1017.2 1016.9
13 17.09 ЮЗ 6 н/о н/о +27.6 +20.1 64 +34 +34 очень
душно
1016.8 1016.5
14 17.09 ЮЗ 5 н/о н/о +28.1 +19.3 59 +34 +34 очень
душно
1016.1 1015.8
15 17.09 ЮЗ 6 н/о н/о +28.5 +17.6 52 +33 +33 очень
душно
1015.5 1015.2
16 17.09 ЮЗ 7 н/о н/о +28.3 +18.3 55 +33 +33 очень
душно
1015.1 1014.8
17 17.09 ЮЗ 7 н/о н/о +27.7 +20.7 66 +35 +35 очень
душно
1014.8 1014.5
18 17.09 Ю 5 н/о н/о +27.0 +20.3 67 +33 +33 очень
душно
1014.9 1014.6 +28.7
19 17.09 СЗ 1 н/о н/о +26.2 +18.0 61 +31 +31 очень
душно
1015.7 1015.4
20 17.09 ЮЗ 2 н/о н/о +24.8 +17.2 63 +29 +29 душно 1016.0 1015.7
21 17.09 ЮЗ 2 н/о н/о +24.6 +18.5 69 +29 +29 душно 1016.0 1015.7
22 17.09 ЮЗ 2 н/о н/о +24.4 +18.7 71 +29 +29 душно 1015.9 1015.6
23 17.09 Ю 1 н/о н/о +24.1 +18.4 70 +29 +29 душно 1016.0 1015.7
00 18.09 Ю 1 н/о н/о +23.0 +17.4 71 +28 +28 душно 1015.9 1015.5
01 18.09 Ю 1 н/о н/о +22.1 +17.0 73 +27 +27 душно 1015.7 1015.3
02 18.09 ЮЗ 2 н/о н/о +21.0 +16.1 74 +25 +25 комфорт 1015.5 1015.1
03 18.09 Ю 2 н/о н/о +20.6 +16.4 77 +25 +25 комфорт 1015.4 1015.0
04 18.09 Ю 1 н/о н/о +20.2 +16.2 78 +24 +24 комфорт 1015.7 1015.3
05 18.09 ЮЗ 1 н/о н/о +20.1 +16.1 78 +24 +24 комфорт 1015.9 1015.5
06 18.09 штиль 0 н/о н/о +20.7 +17.1 80 +24 +24 комфорт 1016.1 1015.7 +19.8 0
07 18.09 штиль 0 н/о н/о +24.2 +20.3 79 +30 +30 очень
душно
1016.0 1015.7
08 18.09 Ю 1 н/о н/о +25.8 +19.8 69 +31 +31 очень
душно
1016.7 1016.4
09 18.09 ЮЗ 3 н/о н/о +26.7 +20.2 68 +33 +33 очень
душно
1016.9 1016.6
10 18.09 ЮЗ 4 н/о н/о +27.0 +21.7 73 +35 +35 очень
душно
1016.6 1016.3
11 18.09 ЮЗ 3 н/о н/о +28.2 +21.4 67 +36 +36 очень
душно
1016.2 1015.9
12 18.09 З 3 н/о н/о +28.1 +21.3 67 +36 +36 очень
душно
1015.9 1015.6
13 18.09 З 3 н/о н/о +28.0 +22.0 70 +36 +36 очень
душно
1015.6 1015.3
14 18.09 ЮЗ 4 н/о н/о +29.0 +22.2 67 +38 +38 очень
душно
1015.1 1014.8
15 18.09 ЮЗ 5 н/о н/о +28.8 +22.5 69 +38 +38 очень
душно
1014.8 1014.5
16 18.09 ЮЗ 5 н/о н/о +28.8 +22.5 69 +38 +38 очень
душно
1014.5 1014.2
18 18.09 Ю 1 н/о н/о +27.6 +21.1 68 +35 +35 очень
душно
1014.9 1014.6 +29.2
19 18.09 СЗ 5 н/о н/о +27.5 +21.0 68 +35 +35 очень
душно
1015.4 1015.1
20 18.09 СЗ 3 н/о н/о +26.9 +21.6 73 +34 +34 очень
душно
1015.9 1015.6
21 18.09 СЗ 2 н/о н/о +26.3 +22.3 79 +34 +34 очень
душно
1016.2 1015.9
22 18.09 СЗ 1 н/о н/о +25.9 +22.5 82 +34 +34 очень
душно
1016.3 1016.0
23 18.09 СЗ 1 н/о н/о +25.0 +21.5 81 +32 +32 очень
душно
1016.0 1015.7
00 19.09 ЮЗ 1 н/о н/о +22.9 +18.4 76 +29 +29 очень
душно
1016.1 1015.7
01 19.09 Ю 1 н/о н/о +23.1 +19.0 78 +29 +29 очень
душно
1015.9 1015.5

 

Местоположение метеостанции Сиракузы (Италия): широта 37.07 долгота 15.28 высота над уровнем моря 1 м.

В архиве по умолчанию представлена погода в Сиракузах за последнюю неделю. Архивные данные за месяц целиком и за предыдущие месяцы, начиная с января 2011 года, Вы можете получить, выбрав интересующий диапазон дат из раскрывающегося списка и нажав кнопку "Ввод!".


*Определитесь, кто Вы:
робот инопланетянин человек

Внимание! Время в таблицах - всемирное. Для получения местного времени необходимо прибавить поправку, которая равна 1 ч.

Смотрите также архив погоды в соседних городах и на ближайших метеорологических станциях:

Погода в Коццо Спадаро (Италия) (45 км)
Погода в Катании (Италия) (49 км)
Погода в Аэропорту Фонтанаросса (Италия) (49 км)
Погода в Джеле (Италия) (94 км)
Погода в Энне (Италия) (104 км)
Погода на Капо Стартивенто (Италия) (117 км)
Погода в Мессине (Италия) (128 км)
Погода в Джибилманне (Италия) (150 км)
Погода на Мальте (Мальта) (153 км)
Погода на Острове Салина (Италия) (172 км)

Пояснения к столбцам:

Ветер - указаны скорость ветра в м/с - средняя за 10 мин, порывы в срок и между сроками (в фигурных скобках) и направление, откуда дует ветер: С - северный, СВ - северо-восточный, В - восточный, ЮВ - юго-восточный, Ю - южный, ЮЗ - юго-западный, З - западный, СЗ - северо-западный.
Видимость - горизонтальная дальность видимости в метрах или километрах. При видимости от 1 до 10 км при отсутствии осадков обычно наблюдается дымка, при ухудшении видимости до 1 км и менее - туман. В сухую погоду видимость может ухудшаться дымом, пылью или мглою.
Явления - указаны атмосферные явления, наблюдавшиеся в срок или в последний час перед сроком; фигурными скобками обозначены явления, наблюдавшиеся между сроками (за 1-3 часа до срока); квадратными скобками обозначены град или гололедные отложения с указанием их диаметра в мм.
Облачность - указаны через наклонную черту общая и нижняя облачность в баллах и высота нижней границы облаков в метрах; квадратными скобками обозначены формы облаков: Ci - перистые, Cs - перисто-слоистые, Cc - перисто-кучевые, Ac - высококучевые, As - высокослоистые, Sc - слоисто-кучевые, Ns - слоисто-дождевые, Cu - кучевые, Cb - кучево-дождевые. Подробнее классификацию облаков см. в Атласе облаков (PDF).
T - Температура воздуха - температура, измеренная на высоте 2 м над землей.
Td - Температура точки росы - температура, при понижении до которой содержащийся в воздухе водяной пар достигнет насыщения.
f - Относительная влажность воздуха - влажноcть воздуха, измеренная на высоте 2 м над землей.
Te - Эффективная температура - температура, которую ощущает одетый по сезону человек в тени. Характеристика душности погоды. При расчете учитывается влияние влажности воздуха и скорости ветра на теплоощущения человека.
Tes - Эффективная температура на солнце - температура, которую ощущает человек, с поправкой на солнечный нагрев. Характеристика знойности погоды. Зависит от высоты солнца над горизонтом, облачности и скорости ветра. Ночью, в пасмурную погоду, а также при ветре 12 м/с и более поправка равна нулю.
P - Атмосферное давление - приведенное к уровню моря атмосферное давление.
Po - Атмосферное давление - измеренное на уровне метеостанции атмосферное давление.
Tmin - Минимальная температура - минимум температуры воздуха на высоте 2 м над землей.
Tmax - Максимальная температура - максимум температуры воздуха на высоте 2 м над землей.
R - Количество осадков - Количество выпавших осадков за период времени, мм. При наведении курсора мыши на число - период времени, за который выпало указанное количество осадков.
R24 - Количество осадков - Количество выпавших осадков за 24 часа, мм.
S - Снежный покров - Высота снежного покрова, см. При наведении курсора мыши на число - состояние снежного покрова и степень покрытия местности в баллах.